User: anonymous
Location: Unspecified
(0.0000°N, 0.0000°E)
Time: 23:32:53
(UTC+02:00)
Language:

AO-40 - Orbit

View from above orbital plane
View from above orbital plane
View from above satellite
View from above satellite

Ground track
Ground track

The orbit data is extracted from the following two-line orbital elements,

1 26609U 00072B   14114.04924357 -.00000174  00000-0  00000+0 0  9371
2 26609 008.1319 058.0493 7930843 101.8579 347.1990 01.25584582 61898
Epoch (UTC): 24 April 2014 01:10:54
Eccentricity: 0.7930843
inclination: 8.1319°
perigee height: 1130 km
apogee height: 58691 km
right ascension of ascending node: 58.0493°
argument of perigee: 101.8579°
revolutions per day: 1.25584582
mean anomaly at epoch: 347.1990°
orbit number at epoch: 6189

The dashed part of the orbit path shows where the satellite is in the earth's shadow,  

DLR